When you browse on this site, cookies collect data to enhance your experience and personalize the content and advertising you see.
Visit our Privacy Policy to learn more. By continuing to use the site, you agree to this use of cookies and data.
  • In Lithuania
  • List of Countries
  • For 7 days
  • Water Temperature
  • Satellite Maps
  • Weather Map
  • Weather Widgets
  • user-avatar
    Login

    Hourly Weather Encamp

    Today, 20 February, Wednesday

    Time Temperature Precipitation Wind Pressure Humidity
    00:00 0°C° 0 mm 1 mps 623 mmHg 72%
    01:00 0°C° 0 mm 1 mps 623 mmHg 71%
    02:00 0°C° 0 mm 1 mps 623 mmHg 70%
    03:00 0°C° 0 mm 1 mps 623 mmHg 69%
    04:00 0°C° 0 mm 1 mps 623 mmHg 68%
    05:00 0°C° 0 mm 1 mps 623 mmHg 66%
    06:00 0°C° 0 mm 1 mps 623 mmHg 64%
    07:00 +2°C° 0 mm 1 mps 624 mmHg 59%
    08:00 +3°C° 0 mm 0 mps 625 mmHg 54%
    09:00 +5°C° 0 mm 0 mps 626 mmHg 48%
    10:00 +6°C° 0 mm 0 mps 627 mmHg 45%
    11:00 +8°C° 0 mm 1 mps 627 mmHg 41%
    12:00 +9°C° 0 mm 1 mps 628 mmHg 38%
    13:00 +9°C° 0 mm 1 mps 628 mmHg 41%
    14:00 +9°C° 0 mm 1 mps 627 mmHg 44%
    15:00 +8°C° 0 mm 1 mps 627 mmHg 47%
    16:00 +6°C° 0 mm 1 mps 626 mmHg 57%
    17:00 +3°C° 0 mm 0 mps 626 mmHg 68%
    18:00 +1°C° 0 mm 0 mps 625 mmHg 78%
    19:00 0°C° 0 mm 0 mps 625 mmHg 77%
    20:00 +1°C° 0 mm 1 mps 625 mmHg 77%
    21:00 +1°C° 0 mm 1 mps 626 mmHg 76%
    22:00 +1°C° 0 mm 1 mps 626 mmHg 75%
    23:00 +1°C° 0 mm 1 mps 626 mmHg 73%

    Tomorrow, 21 February, Thursday

    Time Temperature Precipitation Wind Pressure Humidity
    00:00 +1°C° 0 mm 1 mps 626 mmHg 72%
    01:00 +1°C° 0 mm 1 mps 626 mmHg 70%
    02:00 +1°C° 0 mm 1 mps 626 mmHg 69%
    03:00 +1°C° 0 mm 1 mps 626 mmHg 67%
    04:00 +1°C° 0 mm 1 mps 626 mmHg 66%
    05:00 +1°C° 0 mm 1 mps 626 mmHg 64%
    06:00 +1°C° 0 mm 1 mps 626 mmHg 63%
    07:00 +3°C° 0 mm 1 mps 627 mmHg 58%
    08:00 +5°C° 0 mm 1 mps 628 mmHg 52%
    09:00 +6°C° 0 mm 1 mps 630 mmHg 47%
    10:00 +8°C° 0 mm 1 mps 630 mmHg 43%
    11:00 +9°C° 0 mm 1 mps 631 mmHg 39%
    12:00 +10°C° 0 mm 1 mps 631 mmHg 35%
    13:00 +10°C° 0 mm 1 mps 631 mmHg 36%
    14:00 +10°C° 0 mm 1 mps 631 mmHg 38%
    15:00 +10°C° 0 mm 1 mps 630 mmHg 40%
    16:00 +7°C° 0 mm 1 mps 630 mmHg 48%
    17:00 +5°C° 0 mm 1 mps 629 mmHg 57%
    18:00 +3°C° 0 mm 1 mps 628 mmHg 65%
    19:00 +3°C° 0 mm 1 mps 629 mmHg 64%
    20:00 +3°C° 0 mm 1 mps 629 mmHg 63%
    21:00 +2°C° 0 mm 1 mps 629 mmHg 63%
    22:00 +3°C° 0 mm 1 mps 629 mmHg 63%
    23:00 +3°C° 0 mm 1 mps 629 mmHg 63%

    Day after tomorrow, 22 February, Friday

    Time Temperature Precipitation Wind Pressure Humidity
    00:00 +3°C° 0 mm 1 mps 629 mmHg 62%
    01:00 +2°C° 0 mm 1 mps 629 mmHg 60%
    02:00 +2°C° 0 mm 1 mps 629 mmHg 57%
    03:00 +2°C° 0 mm 1 mps 629 mmHg 55%
    04:00 +2°C° 0 mm 1 mps 629 mmHg 49%
    05:00 +2°C° 0 mm 1 mps 629 mmHg 44%
    06:00 +2°C° 0 mm 1 mps 629 mmHg 39%
    07:00 +4°C° 0 mm 1 mps 630 mmHg 35%
    08:00 +6°C° 0 mm 1 mps 631 mmHg 31%
    09:00 +8°C° 0 mm 1 mps 631 mmHg 28%
    10:00 +10°C° 0 mm 1 mps 632 mmHg 25%
    11:00 +12°C° 0 mm 1 mps 632 mmHg 22%
    12:00 +14°C° 0 mm 1 mps 633 mmHg 20%
    13:00 +13°C° 0 mm 1 mps 632 mmHg 23%
    14:00 +13°C° 0 mm 1 mps 632 mmHg 27%
    15:00 +13°C° 0 mm 1 mps 631 mmHg 30%
    16:00 +10°C° 0 mm 1 mps 630 mmHg 36%
    17:00 +8°C° 0 mm 1 mps 629 mmHg 42%
    18:00 +5°C° 0 mm 1 mps 628 mmHg 49%
    19:00 +5°C° 0 mm 1 mps 628 mmHg 42%
    20:00 +3°C° 0 mm 2 mps 628 mmHg 35%
    21:00 +3°C° 0 mm 2 mps 628 mmHg 28%
    22:00 +4°C° 0 mm 1 mps 628 mmHg 24%
    23:00 +4°C° 0 mm 1 mps 628 mmHg 19%

    23 February, Saturday

    Time Temperature Precipitation Wind Pressure Humidity
    00:00 +4°C° 0 mm 1 mps 628 mmHg 15%
    01:00 +4°C° 0 mm 1 mps 628 mmHg 15%
    02:00 +4°C° 0 mm 1 mps 628 mmHg 14%
    03:00 +4°C° 0 mm 1 mps 628 mmHg 13%
    04:00 +4°C° 0 mm 1 mps 628 mmHg 14%
    05:00 +4°C° 0 mm 1 mps 628 mmHg 14%
    06:00 +4°C° 0 mm 1 mps 628 mmHg 14%
    07:00 +6°C° 0 mm 1 mps 629 mmHg 17%
    08:00 +8°C° 0 mm 1 mps 630 mmHg 19%
    09:00 +10°C° 0 mm 0 mps 631 mmHg 22%
    10:00 +12°C° 0 mm 1 mps 632 mmHg 21%
    11:00 +14°C° 0 mm 1 mps 632 mmHg 21%
    12:00 +15°C° 0 mm 1 mps 633 mmHg 20%
    13:00 +15°C° 0 mm 1 mps 632 mmHg 24%
    14:00 +14°C° 0 mm 1 mps 632 mmHg 27%
    15:00 +14°C° 0 mm 2 mps 631 mmHg 31%
    16:00 +10°C° 0 mm 2 mps 630 mmHg 39%
    17:00 +7°C° 0 mm 2 mps 629 mmHg 46%
    18:00 +5°C° 0 mm 1 mps 628 mmHg 54%
    19:00 +4°C° 0 mm 2 mps 629 mmHg 48%
    20:00 +3°C° 0 mm 2 mps 629 mmHg 42%
    21:00 +3°C° 0 mm 2 mps 629 mmHg 37%
    22:00 +3°C° 0 mm 2 mps 629 mmHg 33%
    23:00 +3°C° 0 mm 2 mps 629 mmHg 29%

    24 February, Sunday

    Time Temperature Precipitation Wind Pressure Humidity
    00:00 +3°C° 0 mm 2 mps 629 mmHg 25%
    01:00 +3°C° 0 mm 1 mps 629 mmHg 26%
    02:00 +3°C° 0 mm 1 mps 629 mmHg 26%
    03:00 +3°C° 0 mm 1 mps 629 mmHg 27%
    04:00 +3°C° 0 mm 1 mps 629 mmHg 30%
    05:00 +3°C° 0 mm 1 mps 629 mmHg 32%
    06:00 +3°C° 0 mm 1 mps 629 mmHg 35%
    07:00 +4°C° 0 mm 1 mps 630 mmHg 35%
    08:00 +6°C° 0 mm 1 mps 631 mmHg 34%
    09:00 +8°C° 0 mm 1 mps 632 mmHg 34%
    10:00 +9°C° 0 mm 1 mps 632 mmHg 32%
    11:00 +10°C° 0 mm 1 mps 632 mmHg 31%
    12:00 +11°C° 0 mm 1 mps 633 mmHg 29%
    13:00 +11°C° 0 mm 1 mps 632 mmHg 32%
    14:00 +11°C° 0 mm 1 mps 632 mmHg 35%
    15:00 +10°C° 0 mm 1 mps 632 mmHg 38%
    16:00 +8°C° 0 mm 1 mps 631 mmHg 48%
    17:00 +6°C° 0 mm 1 mps 630 mmHg 59%
    18:00 +4°C° 0 mm 1 mps 629 mmHg 69%
    19:00 +3°C° 0 mm 1 mps 629 mmHg 69%
    20:00 +3°C° 0 mm 1 mps 629 mmHg 69%
    21:00 +2°C° 0 mm 1 mps 629 mmHg 69%
    22:00 +2°C° 0 mm 1 mps 629 mmHg 66%
    23:00 +2°C° 0 mm 1 mps 629 mmHg 63%

    25 February, Monday

    Time Temperature Precipitation Wind Pressure Humidity
    00:00 +2°C° 0 mm 1 mps 629 mmHg 60%
    01:00 +2°C° 0 mm 1 mps 629 mmHg 57%
    02:00 +2°C° 0 mm 1 mps 629 mmHg 54%
    03:00 +2°C° 0 mm 1 mps 628 mmHg 52%
    04:00 +1°C° 0 mm 1 mps 628 mmHg 51%
    05:00 +1°C° 0 mm 1 mps 628 mmHg 50%
    06:00 +1°C° 0 mm 1 mps 628 mmHg 50%
    07:00 +3°C° 0 mm 1 mps 629 mmHg 45%
    08:00 +4°C° 0 mm 0 mps 630 mmHg 41%
    09:00 +6°C° 0 mm 0 mps 631 mmHg 37%
    10:00 +8°C° 0 mm 0 mps 631 mmHg 35%
    11:00 +10°C° 0 mm 1 mps 631 mmHg 33%
    12:00 +11°C° 0 mm 1 mps 631 mmHg 31%
    13:00 +11°C° 0 mm 1 mps 630 mmHg 35%
    14:00 +11°C° 0 mm 1 mps 630 mmHg 38%
    15:00 +10°C° 0 mm 1 mps 629 mmHg 42%
    16:00 +8°C° 0 mm 1 mps 629 mmHg 56%
    17:00 +5°C° 0 mm 0 mps 628 mmHg 69%
    18:00 +2°C° 0 mm 0 mps 627 mmHg 83%
    19:00 +3°C° 0 mm 1 mps 627 mmHg 85%
    20:00 +3°C° 0 mm 1 mps 627 mmHg 88%
    21:00 +2°C° 0 mm 1 mps 627 mmHg 90%
    22:00 +2°C° 0 mm 1 mps 627 mmHg 92%
    23:00 +1°C° 0 mm 2 mps 627 mmHg 93%
    Show more